Location: Bruderhein
(53.8035°N, 112.9265°W)
Time: 07:18:39
(UTC+00:00)

RS-15 - Pass Details

Date: 01 April 2023
Orbit: 1885 x 2159 km, 64.8° (Epoch: 29 May)

Event Time Altitude Azimuth Distance (km) Brightness Sun altitude
Rises 09:31:31 0° 320° (NW) 5,626 10.7 -26.8°
Reaches altitude 10° 09:35:50 10° 309° (NW) 4,584 10.0 -26.5°
Maximum altitude 09:44:30 25° 261° (W) 3,434 8.9 -25.8°
Enters shadow 09:44:49 25° 259° (WSW) 3,432 8.9 -25.7°
